Location: Camaret
(48.2753°N, 4.5961°W)
Time: 03:46:26
(UTC+00:00)

Cosmos 1076 Rocket - Pass Details

Date: 29 October 2020
Orbit: 589 x 612 km, 82.5° (Epoch: 01 December)

Event Time Altitude Azimuth Distance (km) Brightness Sun altitude
Rises 18:26:19 0° 355° (N) 2,836 7.0 -14.2°
Reaches altitude 10° 18:28:36 10° 1° (N) 1,930 6.0 -14.6°
Maximum altitude 18:32:43 46° 76° (ENE) 798 3.7 -15.3°
Drops below altitude 10° 18:36:48 10° 150° (SSE) 1,922 5.8 -16.0°
Sets 18:39:04 0° 157° (SSE) 2,821 6.7 -16.4°
